RYR555 LOWW-LOWI

Flight info

Callsign RYR555
Flight time 0h 49m
Altitude 30000
Route SOVIL DCT SITNI DCT BAGSI DCT NANIT NANIT2A
Aircraft B38M/M-SDE1FGHILORVWXY/HB1

Departure

Time 2026-05-04 08:02
Airport Vienna International Airport (LOWW)

Arrival

Time 2026-05-04 08:51
Airport Innsbruck Airport (LOWI)
Time Latitude Longitude Altitude Speed Heading
2026-05-04 07:45 48.11811 16.55999 620 ft 0 kts 76°
2026-05-04 07:54 48.11815 16.55886 620 ft 2 kts 117°
2026-05-04 07:56 48.11791 16.55941 620 ft 14 kts 127°
2026-05-04 07:57 48.11695 16.56077 619 ft 22 kts 127°
2026-05-04 07:57 48.11619 16.56301 617 ft 25 kts 118°
2026-05-04 07:57 48.11541 16.56538 623 ft 26 kts 116°
2026-05-04 07:57 48.11460 16.56783 618 ft 27 kts 118°
2026-05-04 07:58 48.11380 16.57034 625 ft 27 kts 116°
2026-05-04 07:58 48.11296 16.57290 628 ft 28 kts 116°
2026-05-04 07:58 48.11210 16.57553 622 ft 24 kts 113°
2026-05-04 07:58 48.11159 16.57714 623 ft 17 kts 117°
2026-05-04 07:59 48.11128 16.57875 615 ft 12 kts 52°
2026-05-04 07:59 48.11210 16.57864 614 ft 14 kts 345°
2026-05-04 07:59 48.11336 16.57811 616 ft 26 kts 344°
2026-05-04 07:59 48.11535 16.57727 620 ft 32 kts 345°
2026-05-04 08:00 48.11758 16.57631 619 ft 29 kts 344°
2026-05-04 08:00 48.11857 16.57642 612 ft 11 kts 67°
2026-05-04 08:00 48.11855 16.57775 608 ft 17 kts 106°
2026-05-04 08:02 48.07954 16.59487 2819 ft 205 kts 168°
2026-05-04 08:02 48.06480 16.59997 3620 ft 229 kts 179°
2026-05-04 08:02 48.04938 16.59565 4762 ft 236 kts 207°
2026-05-04 08:03 48.03705 16.57860 5703 ft 253 kts 238°
2026-05-04 08:03 48.02866 16.55537 6822 ft 262 kts 237°
2026-05-04 08:03 48.01810 16.53276 7967 ft 268 kts 234°
2026-05-04 08:03 48.00739 16.50966 9235 ft 270 kts 234°
2026-05-04 08:04 47.99677 16.48616 10358 ft 278 kts 234°
2026-05-04 08:04 47.98586 16.46119 11050 ft 298 kts 239°
2026-05-04 08:04 47.97969 16.43076 11745 ft 320 kts 263°
2026-05-04 08:04 47.98034 16.39673 12515 ft 335 kts 270°
2026-05-04 08:05 47.98155 16.36221 13517 ft 339 kts 271°
2026-05-04 08:05 47.98285 16.32680 14403 ft 346 kts 271°
2026-05-04 08:05 47.98422 16.29090 15358 ft 347 kts 271°
2026-05-04 08:05 47.98562 16.25462 16187 ft 353 kts 271°
2026-05-04 08:06 47.98703 16.21778 17029 ft 358 kts 271°
2026-05-04 08:06 47.98845 16.18046 17865 ft 362 kts 271°
2026-05-04 08:06 47.98988 16.14265 18615 ft 367 kts 271°
2026-05-04 08:06 47.99255 16.10452 19304 ft 372 kts 275°
2026-05-04 08:08 48.01383 15.82616 23973 ft 399 kts 275°
2026-05-04 08:08 48.01690 15.78478 24526 ft 402 kts 275°
2026-05-04 08:10 48.04155 15.44400 28756 ft 423 kts 276°
2026-05-04 08:11 48.04465 15.40016 29254 ft 426 kts 276°
2026-05-04 08:11 48.04672 15.31170 30019 ft 434 kts 271°
2026-05-04 08:11 48.04738 15.26629 30045 ft 441 kts 271°
2026-05-04 08:12 48.04892 15.17458 30046 ft 441 kts 271°
2026-05-04 08:12 48.05043 15.08475 30046 ft 427 kts 271°
2026-05-04 08:13 48.05185 14.99622 30027 ft 425 kts 271°
2026-05-04 08:13 48.05320 14.90853 30036 ft 425 kts 271°
2026-05-04 08:14 48.05434 14.82015 30043 ft 425 kts 271°
2026-05-04 08:16 48.05687 14.47515 30052 ft 392 kts 271°
2026-05-04 08:16 48.05710 14.43525 30059 ft 376 kts 271°
2026-05-04 08:16 48.05731 14.39641 30052 ft 372 kts 271°
2026-05-04 08:17 48.06632 14.32178 30030 ft 368 kts 299°
2026-05-04 08:17 48.08187 14.29140 30062 ft 371 kts 315°
2026-05-04 08:17 48.10264 14.26839 30045 ft 374 kts 330°
2026-05-04 08:19 48.26197 14.35198 30038 ft 400 kts 64°
2026-05-04 08:19 48.26954 14.39209 30043 ft 402 kts 84°
2026-05-04 08:20 48.26799 14.43378 30040 ft 403 kts 104°
2026-05-04 08:20 48.25776 14.47204 30037 ft 402 kts 122°
2026-05-04 08:20 48.24017 14.50432 30045 ft 399 kts 140°
2026-05-04 08:20 48.21710 14.52736 30038 ft 402 kts 158°
2026-05-04 08:21 48.19018 14.53943 30032 ft 408 kts 175°
2026-05-04 08:21 48.16170 14.53895 30028 ft 415 kts 193°
2026-05-04 08:21 48.13422 14.52516 30025 ft 421 kts 211°
2026-05-04 08:21 48.11082 14.49876 30026 ft 426 kts 229°
2026-05-04 08:22 48.09424 14.46193 30017 ft 431 kts 248°
2026-05-04 08:22 48.08530 14.41968 30053 ft 435 kts 256°
2026-05-04 08:24 48.00312 14.12420 30051 ft 441 kts 245°
2026-05-04 08:24 47.98972 14.08382 30046 ft 439 kts 245°
2026-05-04 08:24 47.96257 14.00217 30035 ft 439 kts 245°
2026-05-04 08:25 47.93537 13.92064 30056 ft 439 kts 245°
2026-05-04 08:25 47.90811 13.83920 30051 ft 439 kts 245°
2026-05-04 08:27 47.80108 13.52189 29364 ft 396 kts 244°
2026-05-04 08:28 47.78881 13.48576 29111 ft 386 kts 244°
2026-05-04 08:28 47.77695 13.45088 28849 ft 382 kts 244°
2026-05-04 08:28 47.76493 13.41558 28599 ft 383 kts 244°
2026-05-04 08:28 47.75288 13.38025 28339 ft 384 kts 244°
2026-05-04 08:29 47.74080 13.34487 28079 ft 385 kts 244°
2026-05-04 08:29 47.72867 13.30939 27836 ft 385 kts 244°
2026-05-04 08:29 47.71651 13.27386 27588 ft 386 kts 244°
2026-05-04 08:31 47.63048 13.02401 25872 ft 392 kts 243°
2026-05-04 08:33 47.54540 12.77922 21638 ft 351 kts 242°
2026-05-04 08:33 47.53434 12.74756 21132 ft 342 kts 242°
2026-05-04 08:35 47.46365 12.54615 17856 ft 293 kts 242°
2026-05-04 08:35 47.45438 12.51983 17432 ft 285 kts 241°
2026-05-04 08:35 47.44533 12.49414 17030 ft 278 kts 241°
2026-05-04 08:35 47.43647 12.46905 16657 ft 273 kts 241°
2026-05-04 08:37 47.39728 12.31271 14539 ft 275 kts 274°
2026-05-04 08:37 47.39947 12.28500 14272 ft 269 kts 274°
2026-05-04 08:37 47.40176 12.25799 14073 ft 263 kts 275°
2026-05-04 08:38 47.40412 12.23122 13852 ft 263 kts 275°
2026-05-04 08:38 47.40654 12.20447 13552 ft 263 kts 275°
2026-05-04 08:38 47.40899 12.17781 13225 ft 261 kts 276°
2026-05-04 08:40 47.42525 12.00190 11641 ft 231 kts 275°
2026-05-04 08:40 47.42743 11.97843 11417 ft 230 kts 275°
2026-05-04 08:40 47.42919 11.95506 11189 ft 227 kts 267°
2026-05-04 08:41 47.42508 11.93314 10887 ft 219 kts 239°
2026-05-04 08:41 47.41738 11.91482 10711 ft 198 kts 237°
2026-05-04 08:41 47.41025 11.89842 10420 ft 183 kts 236°
2026-05-04 08:41 47.40350 11.88334 10129 ft 176 kts 236°
2026-05-04 08:42 47.39669 11.86842 9864 ft 175 kts 235°
2026-05-04 08:42 47.38986 11.85353 9581 ft 175 kts 233°
2026-05-04 08:42 47.38302 11.83880 9276 ft 174 kts 233°
2026-05-04 08:42 47.37647 11.82380 8946 ft 175 kts 242°
2026-05-04 08:43 47.37167 11.80722 8681 ft 177 kts 245°
2026-05-04 08:43 47.36707 11.79044 8405 ft 175 kts 244°
2026-05-04 08:43 47.36250 11.77395 8126 ft 173 kts 245°
2026-05-04 08:43 47.35802 11.75772 7876 ft 173 kts 244°
2026-05-04 08:44 47.35351 11.74133 7602 ft 171 kts 243°
2026-05-04 08:44 47.34904 11.72519 7329 ft 170 kts 244°
2026-05-04 08:46 47.31786 11.61317 5563 ft 156 kts 245°
2026-05-04 08:46 47.31384 11.59885 5305 ft 151 kts 246°
2026-05-04 08:46 47.30989 11.58461 5083 ft 150 kts 247°
2026-05-04 08:46 47.30594 11.57043 4869 ft 150 kts 248°
2026-05-04 08:47 47.30197 11.55627 4647 ft 150 kts 248°
2026-05-04 08:47 47.29803 11.54221 4429 ft 147 kts 249°
2026-05-04 08:47 47.29415 11.52830 4261 ft 147 kts 248°
2026-05-04 08:47 47.29033 11.51441 4056 ft 146 kts 247°
2026-05-04 08:48 47.28640 11.50060 3894 ft 146 kts 246°
2026-05-04 08:48 47.28254 11.48673 3695 ft 146 kts 246°
2026-05-04 08:48 47.27875 11.47306 3541 ft 146 kts 246°
2026-05-04 08:48 47.27480 11.45928 3328 ft 145 kts 245°
2026-05-04 08:49 47.27146 11.44529 3151 ft 145 kts 253°
2026-05-04 08:50 47.26205 11.36099 1981 ft 136 kts 261°
2026-05-04 08:50 47.26066 11.34788 1896 ft 119 kts 261°
2026-05-04 08:51 47.25972 11.33941 1911 ft 50 kts 261°
2026-05-04 08:51 47.25925 11.33699 1906 ft 11 kts 196°
2026-05-04 08:51 47.25863 11.33772 1903 ft 14 kts 126°
2026-05-04 08:51 47.25800 11.33904 1899 ft 17 kts 123°
2026-05-04 08:52 47.25773 11.34083 1909 ft 20 kts 82°
2026-05-04 08:52 47.25796 11.34296 1899 ft 22 kts 81°
2026-05-04 08:52 47.25822 11.34534 1899 ft 25 kts 81°
2026-05-04 08:52 47.25851 11.34797 1903 ft 27 kts 80°
2026-05-04 08:53 47.25866 11.34961 1905 ft 6 kts 98°
2026-05-04 08:54 47.25811 11.34992 1909 ft 0 kts 169°